Starlink 32789

operational
NORAD ID: 62529 Int'l Des: 2025-004 Owner: SPXS Country: US Constellation: starlink
LEOCIRCULAR

About Starlink 32789

Description loading...

Live Position

Loading 3D Globe...

Upcoming Passes

Altitude History

Altitude vs Time

uPlot chart will show altitude changes over time

Two-Line Element Set

1 62529U 25004U 25353.24022370 .00016474 00000-0 60616-3 0 9997
2 62529 43.0005 314.3128 0001512 271.4401 88.6278 15.27617091 54151
Epoch: Dec 19, 2025 • Age: 18 hours

Current Status

Altitude 485.4 km
Velocity 7.63 km/s
Sub-Earth Point 35.56°N, 1.72°W
Launch Date Jan 8, 2025
Age 0.9 years
Type internet

Technical Details

Classification Payload
Mass 730.00 kg
Dry Mass 700.00 kg
Total Mass 730.00 kg
Length 0.30 m
Diameter 4.10 m
Span 29.00 m
Shape Box + pan
Manufacturer SPXS
Bus Type Starlink V2M
Phase Status In Orbit
Owner/State SPXS/US

Large Constellations

Loading constellations...